Время (UTC), дата Ветер
(°,м/с) 
Видим.   Явления Облачность Т
(°С)
Тd
(°С)
f(%) Тe
(°С)
Pmin
(гПа)
dP
(гПа)
Po
(мм)
O2
(г/м3)
Тmin Tmax R s Состояние
почвы
00 01.01.10 260 (З) 4000 м  {ливн. осадки, снег}  6/0 верхняя 
[Ci fib]
-30.6 -32.9 79 -31  1035.5  2.7  747  341  -30.7    0.9  57  равномерный
сухой снег
100% 
03 01.01.10 тихо ()   >10 км    4/0 верхняя 
[Cs]
-32.5 -34.8 80 -33  1040.5  4.4  750  345           
06 01.01.10 тихо ()   >10 км    ясно 
-31.1 -33.4 80 -31  1040.5  0.3  751  343           
09 01.01.10 тихо ()   >10 км    10/0 верхняя 
[Cs]
-31.4 -33.6 82 -31  1040.6  0.1  751  344           
12 01.01.10 тихо ()   4000 м  ледяные иглы  10/0 верхняя 
[Cs]
-33.6 -35.9 81 -34  1040.9  -0.2  751  347    -29.9       
15 01.01.10 тихо ()   н/о  слаб. снег  10/0 верхняя 
[Cs]
-34.3 -36.4 79 -34  997.4  -3.3  748  347           
18 01.01.10 тихо ()   н/о  слаб. снег  10/0 верхняя 
[Cs]
-34.7 -37 81 -35  1036.1  -1.4  747  347           
21 01.01.10 тихо ()   н/о  слаб. снег  10/0 верхняя 
[Cs]
-35.2 -37.4 81 -35  1035.2  -0.9  746  347           
00 02.01.10 тихо ()   н/о  слаб. снег  10/0 верхняя 
[Cs]
-34.9 -37 81 -35  1034.8  -0.4  746  347  -35.2    0.0  57  равномерный
сухой снег
100% 
03 02.01.10 тихо ()   0500 м  туман{снег}  10/0 верхняя 
[Cs]
-35.4 -37.7 80 -35  1036  1.2  747  348           
06 02.01.10 тихо ()   0500 м  туман{снег}  ясно 
-33.5 -35.9 81 -34  1037.7  1.8  748  346           
09 02.01.10 тихо ()   4000 м  дымка{туман}  ясно 
-33.3 -35.6 78 -33  1040.2  2.5  750  346           
12 02.01.10 тихо ()   н/о  ледяные иглы{туман}  ясно 
-35.1 -37.4 81 -35  1043.5  2.9  752  350    -32.5  0.0     
15 02.01.10 тихо ()   н/о  ледяные иглы  ясно 
-35.8 -38 79 -36  1047.1  3.2  755  352           
18 02.01.10 тихо ()   н/о  ледяные иглы  ясно 
-37.2 -39.9 76 -37  1048.3  0.9  755  354           
21 02.01.10 тихо ()   н/о  ледяные иглы  ясно 
-38.4 -40.7 77 -38  1048.1  -0.2  755  356           
00 03.01.10 тихо ()   н/о  ледяные иглы  ясно 
-39.2 -41.1 85 -39  1048.8  0.5  756  358  -39.2      57  равномерный
сухой снег
100% 
03 03.01.10 тихо ()   4000 м  дымка  ясно 
-40.1 -42.7 74 -40  1046.7  -2.2  754  358           
06 03.01.10 тихо ()   4000 м  дымка  ясно 
-36.6 -38.7 81 -37  1045.7  -0.4  754  353           
09 03.01.10 тихо ()   4000 м  дымка  ясно 
-35.2 -37.4 81 -35  1044.9  -0.5  753  350           
12 03.01.10 тихо ()   н/о  дымка  ясно 
-36.7 -39.1 81 -37  1044.9  -0.3  753  353    -35.2       
15 03.01.10 тихо ()   н/о  дымка  10/0 верхняя 
[Cs]
-37.1 -39.5 80 -37  1044.5  -0.4  753  353           
18 03.01.10 тихо ()   н/о  дымка  10/0 верхняя 
[Cs]
-37.1 -39.5 80 -37  1043.6  -0.9  752  353           
21 03.01.10 290 (З) н/о  дымка  10/0 верхняя 
[Cs]
-36.9 -39.1 81 -38  1043.3  -0.3  752  352           
00 04.01.10 тихо ()   н/о  дымка{снег}  9/0 верхняя 
[Cs]
-37.3 -39.5 80 -37  1043.7  0.4  752  353  -37.5    0.0  57  равномерный
сухой снег
100% 
03 04.01.10 тихо ()   4000 м  дымка  10/0 верхняя 
[Cs]
-37.8 -40.5 75 -38  1045.1  1.2  753  354           
06 04.01.10 тихо ()   4000 м  дымка  10/0 верхняя 
[Cs]
-34.6 -36.7 79 -35  1045.5  0.9  754  350           
09 04.01.10 тихо ()   4000 м  дымка  9/0 верхняя 
[Ci fib]
-34.9 -37 81 -35  1046.5  0.9  754  351           
12 04.01.10 тихо ()   н/о  ледяные иглы  ясно 
-36.7 -39.1 81 -37  1047.8  755  354    -34.6       
15 04.01.10 тихо ()   н/о  ледяные иглы  ясно 
-36.6 -38.7 81 -37  1048.9  756  354           
18 04.01.10 тихо ()   н/о  слаб. снег  10/0 верхняя 
[Cs]
-37.1 -39.5 80 -37  1049  0.1  756  355           
21 04.01.10 тихо ()   н/о  слаб. снег  10/0 верхняя 
[Cs]
-37.1 -39.5 80 -37  1048.4  -0.5  756  354           
00 05.01.10 тихо ()   н/о  слаб. снег  10/0 верхняя 
[Cs]
-37.5 -39.9 79 -38  1048.8  0.2  756  355  -37.7    0.2  57  равномерный
сухой снег
100% 
03 05.01.10 320 (СЗ) н/о  слаб. снег  10/0 верхняя 
[Cs]
-37.9 -40.3 78 -39  1050.6  1.7  757  356           
06 05.01.10 320 (СЗ) 0500 м  слаб. снег{туман}  10/0 верхняя 
[Cs]
-36.2 -38.4 79 -37  1049.4  -0.9  756  353           
09 05.01.10 330 (СЗ) 4000 м  слаб. снег{туман}  10/0 600 м верхняя 
[Cs]
-35.9 -38 79 -37  1048.5  -0.8  756  353           
12 05.01.10 280 (З) н/о  слаб. снег{туман}  10/0 верхняя 
[Cs]
-36.8 -39.1 81 -38  1048.6  756  354    -35.7  0.2     
15 05.01.10 300 (СЗ) н/о  слаб. снег  10/0 верхняя 
[Cs]
-37.1 -39.5 80 -38  1045.2  -3.3  753  353           
18 05.01.10 300 (СЗ) н/о  слаб. снег  10/0 верхняя 
[Cs]
-37.2 -39.5 80 -38  1043  -2.1  752  353           
21 05.01.10 280 (З) н/о  слаб. снег  10/0 верхняя 
[Cs]
-37 -39.1 81 -38  1042.1  -0.9  751  352           
00 06.01.10 260 (З) н/о  слаб. снег  10/0 верхняя 
[Cs]
-36.6 -38.7 81 -38  1041  -1.1  750  351  -37.2    0.0  57  равномерный
сухой снег
100% 
03 06.01.10 тихо ()   0500 м  слаб. снег  10/0 верхняя 
[Cs]
-36.2 -38.4 79 -36  1040.2  -0.6  750  350           
06 06.01.10 тихо ()   0500 м  слаб. снег{туман}  10/0 верхняя 
[Cs]
-34.8 -37 81 -35  1038.9  -1  749  348           
09 06.01.10 тихо ()   2000 м  слаб. снег{туман}  10/0 верхняя 
[Cs]
-34.3 -36.4 79 -34  1037.8  -0.9  748  347           
12 06.01.10 тихо ()   н/о  слаб. снег{туман}  10/0 верхняя 
[Cs]
-35.2 -37.4 81 -35  1038  748  348    -34.2  0.0     
15 06.01.10 тихо ()   0500 м  слаб. снег{туман}  10/0 верхняя 
[Cs]
-36.2 -38.4 79 -36  1038.6  0.4  749  350           
18 06.01.10 тихо ()   0500 м  слаб. снег{туман}  10/0 верхняя 
[Cs]
-36.3 -38.4 81 -36  1037.7  -0.9  748  350           
21 06.01.10 тихо ()   0500 м  слаб. снег{туман}  10/0 верхняя 
[Cs]
-36.4 -38.7 81 -36  1035.9  -1.7  747  349           
00 07.01.10 340 (С) 0500 м  слаб. снег{туман}  10/0 верхняя 
[Cs]
-36.8 -39.1 81 -38  1034.5  -1.5  746  349  -36.8    0.2  57  равномерный
сухой снег
100% 
03 07.01.10 тихо ()   2000 м  дымка{снег, туман}  9/0 верхняя 
[Cs]
-37 -39.1 81 -37  1031.1  -3.3  743  348           
06 07.01.10 тихо ()   2000 м  дымка{снег, туман}  10/0 верхняя 
[Cs]
-34.7 -37 81 -35  1030.6  -0.2  743  345           
09 07.01.10 тихо ()   2000 м  дымка  9/0 верхняя 
[Cs]
-34 -36.1 80 -34  1030.5  0.1  743  344           
12 07.01.10 тихо ()   н/о  дымка  ясно 
-35.3 -37.7 80 -35  1032.5  1.8  744  346    -33.7  0.0     
15 07.01.10 тихо ()   н/о  дымка  ясно 
-36.1 -38.4 79 -36  1033.8  1.1  745  348           
18 07.01.10 250 (З) н/о  дымка  ясно 
-34.9 -37 81 -36  1035.6  1.9  747  347           
21 07.01.10 250 (З) 4000 м    6/0 верхняя 
[Ci fib]
-33 -35.3 79 -37  1036.7  1.3  748  345           
00 08.01.10 260 (З) 4000 м    8/0 верхняя 
[Ci fib]
-33.3 -36.2 76 -37  1038.3  1.6  749  346  -37.3      57  равномерный
сухой снег
100% 
03 08.01.10 240 (ЮЗ) 10 км  позёмок  9/4 1000 м средняя, верхняя 
[Sc|Ac trans|Ci fib]
-33 -36 74 -40  1040.4  750  346           
06 08.01.10 260 (З) 4000 м  ливневой снег  10/10 600 м кучево-дожд. 
[Cb cap]
-31.1 -34 76 -35  1041.4  1.3  751  344           
09 08.01.10 240 (ЮЗ) 10 км  слаб. ливневой снег  10/10 600 м кучево-дожд. 
[Cb cap]
-30.3 -33.4 76 -36  1042.5  1.2  752  343           
12 08.01.10 270 (З) н/о  ливневой снег  10/10 600 м кучево-дожд. 
[Cb cap]
-30.2 -33.2 74 -34  1044  1.5  753  343    -29.8  0.8     
15 08.01.10 230 (ЮЗ) 4000 м  слаб. ливневой снег  10/10 600 м кучево-дожд. 
[Cb cap]
-30.8 -33.8 74 -37  1045.9  1.6  755  345           
18 08.01.10 270 (З) 4000 м  слаб. ливневой снег  10/6 600 м кучево-дожд., средняя 
[Cb cap|As op]
-30.3 -33.4 76 -36  1046.1  0.4  755  344           
21 08.01.10 240 (ЮЗ) 4000 м  слаб. ливневой снег  10/10 600 м кучево-дожд. 
[Cb cap]
-30.2 -33.2 74 -37  1047.1  756  344           
00 09.01.10 270 (З) 4000 м  слаб. снег{ливн. осадки}  10/6 2000 м средняя, верхняя 
[Ac trans|Cs]
-30.4 -32.7 80 -31  1048.7  1.5  757  345  -30.8    0.5  56  равномерный
сухой снег
100% 
03 09.01.10 240 (ЮЗ) 10 км  слаб. ливневой снег  9/5 600 м кучево-дожд., средняя, верхняя 
[Cb cap|Ac trans|Ci fib]
-30.1 -32.5 80 -34  1049.5  0.7  757  345           
06 09.01.10 250 (З) >10 км  слаб. снег{ливн. осадки}  10/0 2000 м средняя 
[As op]
-27.3 -30.4 75 -33  1049.3  0.3  757  341           
09 09.01.10 230 (ЮЗ) >10 км  {снег}  ясно 
-27.7 -30.8 75 -31  1049.2  -0.2  757  341           
12 09.01.10 тихо ()   4000 м  {снег}  ясно 
-30.8 -33.2 79 -31  1050.6  0.9  758  346    -26.5  0.0     
15 09.01.10 тихо ()   4000 м    ясно 
-32.4 -34.8 80 -32  1051.3  0.5  758  349           
18 09.01.10 тихо ()   4000 м    ясно 
-34.3 -36.4 79 -34  1051.5  -0.1  758  351           
21 09.01.10 тихо ()   4000 м    ясно 
-34.5 -36.7 79 -35  1052  0.3  758  352           
00 10.01.10 тихо ()   4000 м    ясно 
-34.5 -36.7 79 -35  1052  758  352  -35      56  равномерный
сухой снег
100% 
03 10.01.10 тихо ()   4000 м  дымка  3/0 верхняя 
[Ci fib]
-36.1 -38.4 79 -36  1054.6  2.3  760  355           
06 10.01.10 120 (ЮВ) 4000 м  слаб. снег  10/0 верхняя 
[Cs]
-33.3 -35.6 78 -34  1054.1  760  351           
09 10.01.10 тихо ()   4000 м  дымка{снег}  5/0 верхняя 
[Ci fib]
-32.8 -35.1 79 -33  1054.3  0.2  760  350           
12 10.01.10 тихо ()   н/о  дымка{снег}  ясно 
-34.4 -36.7 79 -34  1056  1.4  761  353    -32.2  0.0     
15 10.01.10 тихо ()   н/о  дымка  ясно 
-35.5 -37.7 80 -36  1056.3  761  355           
18 10.01.10 тихо ()   н/о  дымка  ясно 
-36.3 -38.4 81 -36  1055.2  -1  761  356           
21 10.01.10 тихо ()   н/о  дымка  ясно 600 м 
-37.4 -39.5 80 -37  1054.1  -1.2  760  357           
00 11.01.10 тихо ()   н/о  дымка  ясно 
-37.5 -39.9 79 -38  1053  -1.2  759  356  -37.8      56  равномерный
сухой снег
100% 
03 11.01.10 тихо ()   2000 м  дымка  ясно 
-37.5 -39.9 79 -38  1048.6  -4.2  756  355           
06 11.01.10 тихо ()   2000 м  дымка  ясно 
-32.8 -35.1 79 -33  1045.5  -2.1  754  347           
09 11.01.10 тихо ()   2000 м  дымка  9/0 верхняя 
[Ci fib]
-30.8 -33.2 79 -31  1042.6  -2.6  752  344           
12 11.01.10 тихо ()   н/о  дымка  9/0 верхняя 
[Ci fib]
-32 -34.3 81 -32  1039.9  -2.7  750  344    -29       
15 11.01.10 тихо ()   н/о  дымка  9/6 600 м кучево-дожд., верхняя 
[Cb cap|Ci fib]
-29.8 -32.1 81 -30  1036.1  -3.4  748  340           
18 11.01.10 тихо ()   н/о  дымка  9/6 600 м кучево-дожд., верхняя 
[Cb cap|Ci fib]
-26.6 -28.3 86 -27  1032.3  -3.2  745  334           
21 11.01.10 тихо ()   н/о  дымка  10/6 600 м кучево-дожд., верхняя 
[Cb cap|Cs]
-26.8 -29.3 79 -27  1028.9  -3.2  743  334           
00 12.01.10 тихо ()   4000 м    9/4 600 м кучево-дожд., верхняя 
[Cb cap|Cs]
-24.8 -26.6 85 -25  1025.4  -3  740  330  -32      56  равномерный
сухой снег
100% 
03 12.01.10 240 (ЮЗ) >10 км  слаб. ливневой снег  10/6 600 м кучево-дожд., верхняя 
[Cb cap|Cs]
-20 -21.9 85 -24  1022.2  -2.1  739  323           
06 12.01.10 250 (З) 10 км  позёмок{ливн. осадки}  10/8 600 м кучево-дожд., верхняя 
[Cb cap|Cs]
-10.3 -13.9 75 -14  1017.4  -3.3  736  309           
09 12.01.10 170 (Ю) 10 км  слаб. ливневой снег  10/4 600 м кучево-дожд., средняя 
[Cb cap|Ac lent]
-12.6 -14.6 85 -13  1017.1  -0.5  736  312           
12 12.01.10 240 (ЮЗ) 4000 м  слаб. ливневой снег  9/5 600 м кучево-дожд., средняя 
[Cb cap|Ac lent]
-9.3 -14.4 66 -12  1015.8  -0.9  735  308    -8.9  0.0     
15 12.01.10 240 (ЮЗ) 4000 м  позёмок{ливн. осадки}  8/8 2000 м средняя 
[Ac trans]
-9.1 -13.6 70 -13  1015  -0.8  735  307           
18 12.01.10 240 (ЮЗ) 4000 м  {ливн. осадки}  10/4 2000 м средняя, верхняя 
[Ac trans|Cs]
-10.7 -13.5 80 -11  1016.3  1.1  735  310           
21 12.01.10 260 (З) 4000 м  слаб. ливневой снег  9/8 600 м кучево-дожд., средняя 
[Cb cap|Ac trans]
-10.6 -13.4 80 -12  1019.6  3.3  738  310           
00 13.01.10 240 (ЮЗ) 4000 м  слаб. ливневой снег  3/3 600 м кучево-дожд. 
[Cb cap]
-13.2 -15.2 85 -15  1022.6  2.5  740  314  -13.2    0.0  55  равномерный
сухой снег
100% 
03 13.01.10 240 (ЮЗ) >10 км  слаб. ливневой снег  9/3 600 м кучево-дожд., средняя, верхняя 
[Cb cap|Ac lent|Ci fib]
-15.1 -17 85 -17  1026.5  3.5  742  318           
06 13.01.10 310 (СЗ) >10 км  {ливн. осадки}  10/4 2000 м средняя, верхняя 
[Ac lent|Ci fib]
-12.5 -17.7 65 -16  1025.9  -0.2  742  315           
09 13.01.10 220 (ЮЗ) >10 км    9/4 2000 м средняя, верхняя 
[Ac lent|Ci fib]
-12.7 -18.8 60 -16  1025.1  -0.9  742  315           
12 13.01.10 220 (ЮЗ) 4000 м    4/0 верхняя 
[Ci fib]
-14.5 -17.9 75 -17  1025.2  -0.1  741  317    -11.6  0.0     
15 13.01.10 260 (З) 4000 м    8/0 верхняя 
[Ci fib]
-13.8 -19 65 -16  1021.3  -3.8  739  315           
18 13.01.10 240 (ЮЗ) 4000 м    6/0 верхняя 
[Ci fib]
-13.7 -18.9 65 -16  1020.4  -0.8  738  315           
21 13.01.10 220 (ЮЗ) 4000 м    8/0 верхняя 
[Ci fib]
-12.6 -17.8 65 -15  1020.1  738  313           
00 14.01.10 240 (ЮЗ) 4000 м    8/0 верхняя 
[Ci fib]
-13.4 -17.7 70 -16  1020.2  738  314  -15      55  равномерный
сухой снег
100% 
03 14.01.10 240 (ЮЗ) >10 км    8/0 средняя, верхняя 
[Ac lent|Ci fib]
-16.6 -18.5 86 -17  1019.9  -0.9  737  318           
06 14.01.10 тихо ()   10 км    10/0 верхняя 
[Cs]
-13 -16.5 75 -13  1016.8  -2.4  736  313           
09 14.01.10 тихо ()   10 км    10/10 2000 м 
[Ac As]
-13.2 -15.9 80 -13  1014.4  -2.3  734  312           
12 14.01.10 220 (ЮЗ) 4000 м    10/10 2000 м 
[Ac As]
-8.1 -14.9 58 -11  1011.1  -2.6  732  305    -7.9       
15 14.01.10 250 (З) 4000 м  позёмок  10/3 600 м кучево-дожд., средняя, верхняя 
[Cb cap|Ac lent|Cs]
-6.3 -13.9 55 -10  1012.5  1.7  733  304           
18 14.01.10 250 (З) 4000 м  позёмок  8/8 2000 м средняя 
[Ac trans]
-6 -12.8 59 -9  1011.3  -1.2  732  303           
21 14.01.10 250 (З) 4000 м  позёмок  6/6 2000 м средняя 
[Ac trans]
-5.3 -11.7 61 -9  1009.9  -1.2  731  302           
00 15.01.10 250 (З) 4000 м    3/3 2000 м средняя 
[Ac lent]
-5.5 -11.6 62 -8  1010.8  0.8  732  302  -8.1      53  равномерный
сухой снег
100% 
03 15.01.10 250 (З) >10 км    9/5 600 м кучево-дожд., средняя, верхняя 
[Cb cap|Ac lent|Ci fib]
-3.9 -9.7 64 -5  1008.2  -2.4  730  299           
06 15.01.10 330 (СЗ) >10 км  слаб. ливневой снег  10/6 600 м кучево-дожд., средняя 
[Cb cap|As op]
-7 -9.5 82 -8  1010.1  1.5  731  303           
09 15.01.10 280 (З) >10 км  {ливн. осадки}  8/8 600 м кучево-дожд. 
[Cb cap]
-6.6 -12.7 62 -9  1010.7  0.7  732  303           
12 15.01.10 300 (СЗ) 4000 м  позёмок{ливн. осадки}  9/6 600 м кучево-дожд., верхняя 
[Cb cap|Ci fib]
-10.9 -15.3 70 -15  1015.2  3.7  735  310    -3.6     
15 15.01.10 330 (СЗ) 4000 м    6/3 600 м кучево-дожд., верхняя 
[Cb cap|Ci fib]
-14.8 -19.1 70 -17  1019.2  3.3  737  315           
18 15.01.10 250 (З) 4000 м    ясно 
-17.8 -20.4 80 -20  1021.5  1.8  738  320           
21 15.01.10 250 (З) 4000 м    6/0 верхняя 
[Ci fib]
-20.2 -22.1 85 -20  1022.3  0.5  739  323           
00 16.01.10 260 (З) 4000 м    3/0 верхняя 
[Ci fib]
-23.3 -25.1 85 -24  1022.3  -0.5  738  327  -23.3      58  равномерный
сухой снег
100% 
03 16.01.10 тихо ()   10 км    9/6 600 м кучево-дожд., средняя 
[Cb cap|Ac trans]
-22.8 -24 90 -23  1022.8  0.5  739  326           
06 16.01.10 270 (З) >10 км  в посл. час ливневой снег  8/3 600 м кучево-дожд., средняя, верхняя 
[Cb cap|Ac trans|Ci fib]
-20.8 -22 90 -21  1022.2  -0.3  739  324           
09 16.01.10 240 (ЮЗ) >10 км  {ливн. осадки}  5/3 2000 м средняя, верхняя 
[Ac trans|Ci fib]
-12.1 -18.3 60 -12  1021.1  0.2  739  313           
12 16.01.10 270 (З) 4000 м  {ливн. осадки}  4/3 600 м кучево-дожд., средняя 
[Cb cap|Ac trans]
-14.2 -19.3 65 -16  1023.6  2.2  740  316    -11.9  0.2     
15 16.01.10 280 (З) 4000 м  позёмок  4/0 верхняя 
[Ci fib]
-17.6 -22.6 65 -23  1027.1  2.8  742  321           
18 16.01.10 280 (З) 4000 м  слаб. ливневой снег  6/4 600 м кучево-дожд., верхняя 
[Cb cap|Ci fib]
-20.2 -24.3 70 -20  1028.5  743  325           
21 16.01.10 270 (З) 4000 м  {ливн. осадки}  6/0 верхняя 
[Ci fib]
-24.1 -26.6 80 -25  1029.1  743  330           
00 17.01.10 270 (З) 4000 м  {ливн. осадки}  10/4 600 м кучево-дожд., верхняя 
[Cb cap|Cs]
-23.5 -26 80 -24  1028.6  -0.3  743  329  -24.6    0.0  57  равномерный
сухой снег
100% 
03 17.01.10 тихо ()   >10 км    10/0 верхняя 
[Cs]
-24.8 -27.3 79 -25  1029.8  -0.9  744  331           
06 17.01.10 тихо ()   >10 км  слаб. снег  10/3 2000 м средняя, верхняя 
[Ac lent|Cs]
-23.7 -26.1 80 -24  1029.4  -0.3  743  330           
09 17.01.10 тихо ()   4000 м  слаб. снег  10/10 2000 м 
[Ns]
-23.5 -26 80 -24  1029  -0.2  743  329           
12 17.01.10 тихо ()   н/о  слаб. снег  10/0 верхняя 
[Cs]
-25.4 -27.8 79 -25  1030.2  0.9  744  332    -22.8  0.4     
15 17.01.10 тихо ()   н/о  дымка{снег}  3/0 верхняя 
[Ci fib]
-27.2 -29 85 -27  1031.8  1.2  745  335           
18 17.01.10 тихо ()   4000 м  {снег}  ясно 
-30 -32.3 80 -30  1034.3  1.9  746  340           
21 17.01.10 тихо ()   4000 м    8/5 2000 м средняя, верхняя 
[Ac lent|Ci fib]
-30.8 -33.2 79 -31  1036.3  1.8  748  341           
00 18.01.10 тихо ()   4000 м  {снег}  4/3 2000 м средняя, верхняя 
[Ac lent|Ci fib]
-31.6 -33.8 80 -32  1039.4  2.8  750  344  -31.6    0.0  56  равномерный
сухой снег
100% 
03 18.01.10 270 (З) >10 км  {снег}  4/3 2000 м средняя, верхняя 
[Ac lent|Ci fib]
-33 -35.3 79 -39  1044.3  4.6  753  347           
06 18.01.10 290 (З) >10 км  слаб. снег  10/4 2000 м средняя, верхняя 
[Ac trans|Cs]
-28.4 -31.5 75 -34  1046.5  2.7  755  342           
09 18.01.10 270 (З) >10 км  слаб. снег  10/6 2000 м средняя, верхняя 
[Ac trans|Cs]
-28.4 -31.5 75 -34  1049.3  2.9  757  343           
12 18.01.10 290 (З) 4000 м  позёмок{снег}  4/0 верхняя 
[Ci fib]
-28.4 -31.5 75 -35  1052.3  2.9  760  343    -28.1  0.2     
15 18.01.10 270 (З) 4000 м  позёмок  4/0 верхняя 
[Ci fib]
-28.4 -31.5 75 -35  1053.9  1.5  761  344           
18 18.01.10 240 (ЮЗ) 4000 м  слаб. снег  10/0 верхняя 
[Cs]
-29.4 -32.4 74 -33  1056.5  2.4  762  346           
21 18.01.10 280 (З) 4000 м  слаб. снег  10/0 верхняя 
[Cs]
-29.2 -32.2 75 -36  1057.5  0.9  763  346           
00 19.01.10 280 (З) 4000 м  слаб. снег  10/0 верхняя 
[Cs]
-28.2 -32 70 -36  1059  1.9  764  345  -29.4    0.2  56  равномерный
сухой снег
100% 
03 19.01.10 280 (З) 6{12}  10 км  слаб. снег  10/0 средняя, верхняя 
[Ac trans|Cs]
-26.5 -29.7 74 -35  1059.9  1.2  765  343           
06 19.01.10 270 (З) 6{13}  10 км  слаб. снег  10/10 2000 м 
[As trans]
-24.6 -27.7 75 -33  1059.7  765  341           
09 19.01.10 260 (З) 7{14}  4000 м  слаб. снег  10/10 2000 м 
[Ns]
-23.2 -26.4 75 -32  1058.6  -0.8  765  339           
12 19.01.10 280 (З) 8{16}  н/о  снег  10/10 2000 м 
[Ns]
-22.2 -25.4 76 -31  1058.2  -0.2  764  337    -22.2     
15 19.01.10 260 (З) 6{16}  н/о  снег  10/10 2000 м 
[Ns]
-21.3 -24.6 75 -29  1058.7  0.6  765  336           
18 19.01.10 280 (З) 9{14}  н/о  снег  10/10 2000 м 
[Ns]
-20.1 -23.4 75 -29  1058.7  0.2  765  334           
21 19.01.10 260 (З) 10{17}  н/о  слаб. снег  10/10 2000 м 
[Ns]
-19.6 -22.9 75 -29  1057.8  -0.9  764  334           
00 20.01.10 270 (З) 9{18}  н/о  метель{снег}  10/10 2000 м 
[Ns]
-18.7 -22.8 70 -28  1057.3  -0.3  764  332  -22.2    47  равномерный
сухой снег
100% 
03 20.01.10 270 (З) 9{19}  >10 км  слаб. ливневой снег  10/4 600 м кучево-дожд., средняя 
[Cb cap|As op]
-17.9 -21.2 75 -27  1053.9  -3.2  762  330           
06 20.01.10 280 (З) 8{15}  >10 км  метель{ливн. осадки}  10/3 600 м кучево-дожд., средняя 
[Cb cap|As op]
-16.8 -21 70 -25  1052.7  -1  761  328           
09 20.01.10 270 (З) 6{13}  >10 км  метель{ливн. осадки}  10/4 600 м кучево-дожд., средняя 
[Cb cap|Ac As]
-15.7 -19.1 75 -22  1051.5  -1  760  327           
12 20.01.10 270 (З) 8{16}  н/о  метель{ливн. осадки}  9/3 600 м кучево-дожд., верхняя 
[Cb cap|Cs]
-15.6 -19.8 70 -23  1050.5  -1  760  326    -15.6  0.4     
15 20.01.10 290 (З) 4000 м  позёмок  10/10 2000 м 
[Ns]
-15.6 -19 75 -20  1051  0.5  760  326           
18 20.01.10 280 (З) 4000 м  позёмок  10/10 2000 м 
[Ns]
-16.6 -20.8 70 -22  1050.7  -0.4  760  327           
21 20.01.10 060 (СВ) 4000 м  слаб. снег  10/10 2000 м 
[Ns]
-17.8 -21.9 70 -18  1050.8  -0.1  760  329           
00 21.01.10 120 (ЮВ) 4000 м  слаб. снег  10/10 2000 м 
[Ns]
-19.1 -23.2 70 -22  1051.4  0.5  760  331  -19.2    0.0  42  равномерный
сухой снег
100% 
03 21.01.10 тихо ()   >10 км  слаб. ливневой снег  9/3 600 м кучево-дожд., средняя 
[Cb cap|Ac trans]
-20.1 -24.2 70 -20  1053.1  1.4  761  333           
06 21.01.10 160 (Ю) >10 км  {ливн. осадки, снег}  ясно 
-18.6 -23.5 65 -23  1051.9  -0.9  760  330           
09 21.01.10 190 (Ю) >10 км    9/8 2000 м средняя 
[Ac trans]
-18.3 -23.3 65 -19  1050.3  -1.5  759  330           
12 21.01.10 240 (ЮЗ) 4000 м    ясно 
-19.8 -23.9 70 -20  1049.6  -0.9  758  331    -17.4  0.0     
15 21.01.10 270 (З) 4000 м  слаб. ливневой снег  8/3 600 м кучево-дожд., средняя 
[Cb cap|Ac trans]
-19.1 -23.2 70 -23  1048.1  -1.3  758  330           
18 21.01.10 240 (ЮЗ) 4000 м  слаб. ливневой снег  3/3 600 м кучево-дожд. 
[Cb cap]
-19 -21.6 80 -19  1046.4  -1.6  756  329           
21 21.01.10 160 (Ю) 4000 м  позёмок{ливн. осадки}  ясно 
-18.4 -21 80 -24  1043.8  -2.4  755  328           
00 22.01.10 150 (ЮВ) 4000 м  {ливн. осадки}  ясно 
-17.8 -21.1 75 -22  1041.1  -2.6  753  326  -19.9    0.0  41  равномерный
сухой снег
100% 
03 22.01.10 270 (З) 4{12}  >10 км  позёмок  9/0 верхняя 
[Ci fib]
-17.6 -21.7 70 -23  1039.9  -1.1  752  325           
06 22.01.10 150 (ЮВ) 6{14}  >10 км  метель  4/0 верхняя 
[Ci fib]
-13.6 -18.8 65 -20  1035.5  -3.7  749  319           
09 22.01.10 120 (ЮВ) 7{15}  >10 км  метель  ясно 
-13.2 -18.4 65 -20  1032.1  -3.2  747  318           
12 22.01.10 120 (ЮВ) 6{15}  4000 м  метель  ясно 
-13.9 -18.2 70 -20  1031  -1.2  746  318    -13       
15 22.01.10 130 (ЮВ) 5{13}  4000 м  позёмок  ясно 
-15.4 -19.6 70 -21  1028.8  -2.2  744  319           
18 22.01.10 260 (З) 4000 м    4/4 2000 м средняя 
[Ac trans]
-15.4 -20.5 65 -18  1027.3  -1.5  743  319           
21 22.01.10 330 (СЗ) 4000 м  слаб. ливневой снег  10/8 600 м кучево-дожд., средняя 
[Cb cap|As op]
-15.5 -15.9 97 -18  1027.5  0.2  743  319           
00 23.01.10 280 (З) 4000 м  слаб. ливневой снег  4/3 600 м кучево-дожд., верхняя 
[Cb cap|Ci fib]
-18 -22.1 70 -21  1029.8  1.8  744  323  -18    0.8  42  равномерный
сухой снег
100% 
03 23.01.10 140 (ЮВ) >10 км  {ливн. осадки}  3/3 600 м кучево-дожд. 
[Cb cap]
-19.7 -23.8 70 -24  1034.4  4.1  747  326           
06 23.01.10 260 (З) >10 км  {ливн. осадки}  ясно 
-17.8 -23.7 60 -20  1036.8  2.7  749  325           
09 23.01.10 270 (З) >10 км    ясно 
-19 -25.8 55 -22  1040.1  752  327           
12 23.01.10 240 (ЮЗ) 4000 м    ясно 
-22.2 -26.1 71 -25  1043.6  754  332    -17.2  0.0     
15 23.01.10 170 (Ю) 4000 м    9/0 верхняя 
[Ci fib]
-22.6 -25.8 75 -27  1043.3  -0.5  754  333           
18 23.01.10 170 (Ю) 4000 м  слаб. ливневой снег  9/6 600 м кучево-дожд., средняя 
[Cb cap|Ac trans]
-22 -25.2 75 -25  1042.4  -0.7  753  332           
21 23.01.10 140 (ЮВ) 4000 м  {ливн. осадки}  9/4 600 м кучево-дожд., средняя 
[Cb cap|Ac trans]
-21.2 -25.2 70 -26  1040.3  -1.9  752  330           
00 24.01.10 150 (ЮВ) 4000 м  {ливн. осадки}  10/10 600 м кучево-дожд. 
[Cb cap]
-20.4 -25.3 64 -25  1037.9  -2.2  750  328  -22.6    0.0  42  равномерный
сухой снег
100% 
03 24.01.10 230 (ЮЗ) >10 км    9/5 600 м кучево-дожд., средняя 
[Cb cap|Ac trans]
-19.2 -24.1 65 -23  1035.4  -2.2  748  326           
06 24.01.10 160 (Ю) >10 км    9/4 600 м кучево-дожд., средняя 
[Cb cap|Ac trans]
-17.7 -23.6 59 -23  1033.4  -1.8  747  324           
09 24.01.10 130 (ЮВ) >10 км    9/3 1000 м средняя 
[Sc|Ac trans]
-15.8 -23.9 50 -18  1030.4  -2.6  745  320           
12 24.01.10 160 (Ю) 4000 м    ясно 
-16.7 -24.7 50 -22  1028.9  -1.6  744  321    -15.3       
15 24.01.10 140 (ЮВ) 4000 м    10/3 600 м кучево-дожд., средняя 
[Cb cap|As op]
-16.6 -23.5 55 -22  1028  -0.9  743  320           
18 24.01.10 150 (ЮВ) 4000 м  метель  9/9 2000 м средняя 
[Ac trans]
-16.5 -23.4 55 -24  1024.9  -2.9  741  319           
21 24.01.10 130 (ЮВ) 9{15}  4000 м  метель  10/10 2000 м 
[Ns]
-15.3 -22.3 55 -23  1022.1  -2.5  739  317           
00 25.01.10 120 (ЮВ) 7{16}  4000 м  слаб. снег  10/10 2000 м 
[Ns]
-15 -21 60 -22  1019.7  -2.3  737  316  -16.9    0.0  42  равномерный
сухой снег
100% 
03 25.01.10 140 (ЮВ) 3{14}  >10 км  {снег}  9/8 2000 м средняя, верхняя 
[Ac lent|Cc]
-15.7 -21.7 60 -19  1017.2  -2.5  736  316           
06 25.01.10 150 (ЮВ) 6{14}  >10 км  позёмок{снег}  9/8 2000 м средняя, верхняя 
[Ac trans|Cs]
-14 -21.1 55 -20  1013.6  -3.2  733  313           
09 25.01.10 110 (В) 6{14}  >10 км  позёмок  10/6 600 м кучево-дожд., средняя 
[Cb cap|As op]
-12.6 -19.8 55 -18  1011.1  -2.3  731  310           
12 25.01.10 140 (ЮВ) 3{13}  4000 м    10/5 600 м кучево-дожд., средняя 
[Cb cap|Ac As]
-17.2 -18.4 91 -21  1012.9  1.8  733  317    -17.2  0.0     
15 25.01.10 250 (З) 4000 м  слаб. ливневой снег  10/8 600 м кучево-дожд., верхняя 
[Cb cap|Cs]
-15.4 -18.8 75 -20  1016.4  735  315           
18 25.01.10 290 (З) 4000 м  в посл. час ливневой снег  ясно 
-19.7 -23.8 70 -24  1022.9  5.6  739  323           
21 25.01.10 270 (З) 4000 м    ясно 
-25.3 -29.1 71 -26  1029.9  744  332           
00 26.01.10 270 (З) 4000 м    ясно 
-28.9 -32 75 -30  1035.7  4.9  747  339  -28.9    0.6  41  равномерный
сухой снег
100% 
03 26.01.10 тихо ()   >10 км    ясно 
-32.2 -34.6 80 -32  1041  4.7  751  345           
06 26.01.10 040 (СВ) >10 км    ясно 
-30.6 -34.3 71 -31  1042.1  1.2  752  343           
09 26.01.10 тихо ()   >10 км    ясно 
-29.8 -33.5 69 -30  1042.6  0.6  752  342           
12 26.01.10 210 (ЮЗ) 4000 м    ясно 
-32.3 -35.2 76 -33  1044.7  1.8  754  346    -28.9       
15 26.01.10 тихо ()   4000 м    ясно 
-32.8 -35.1 79 -33  1045.3  0.4  754  347           
18 26.01.10 160 (Ю) 4000 м    10/0 верхняя 
[Cs]
-31.2 -34.2 76 -32  1043.9  -1.1  753  345           
21 26.01.10 180 (Ю) 4000 м    10/0 верхняя 
[Cs]
-29.4 -32.4 74 -33  1042.1  -1.4  752  342           
00 27.01.10 140 (ЮВ) 4000 м  позёмок  10/0 верхняя 
[Cs]
-27.9 -31.7 69 -36  1040.4  -1.7  751  339  -33.8      41  равномерный
сухой снег
100% 
03 27.01.10 140 (ЮВ) >10 км  позёмок  10/5 2000 м средняя, верхняя 
[Ac lent|Cs]
-26.5 -30.4 70 -34  1038.8  -1.2  750  337           
06 27.01.10 130 (ЮВ) >10 км  позёмок  9/4 1000 м верхняя 
[Sc|Ci sp]
-22.3 -27.9 60 -29  1036.2  -1.9  749  330           
09 27.01.10 120 (ЮВ) 5{12}  >10 км  позёмок  10/5 1000 м средняя 
[Sc|Ac As]
-20.1 -26.8 55 -27  1033.7  -2.1  747  327           
12 27.01.10 160 (Ю) 5{12}  4000 м  позёмок  10/8 1000 м средняя 
[Sc|Ac As]
-18.8 -26.6 50 -25  1033.4  -0.1  747  325    -18.4       
15 27.01.10 240 (ЮЗ) 5{19}  4000 м  позёмок  10/4 600 м кучево-дожд., средняя 
[Cb cap|As trans]
-16.7 -23.6 55 -23  1030.2  -2.8  745  321           
18 27.01.10 220 (ЮЗ) 5{18}  4000 м  позёмок  9/6 600 м кучево-дожд., средняя 
[Cb cap|Ac trans]
-15.6 -22.6 55 -21  1030.9  0.7  745  320           
21 27.01.10 210 (ЮЗ) 8{19}  4000 м  слаб. ливневой снег  9/4 600 м кучево-дожд., средняя, верхняя 
[Cb cap|Ac trans|Ci fib]
-15 -20.1 65 -22  1028.1  -2.5  743  319           
00 28.01.10 210 (ЮЗ) 9{19}  4000 м  слаб. ливневой снег  9/8 600 м кучево-дожд., средняя 
[Cb cap|Ac trans]
-13 -17.3 70 -21  1028.1  0.3  744  316  -18.8    0.0  39  равномерный
сухой снег
100% 
03 28.01.10 210 (ЮЗ) 8{20}  >10 км  метель{ливн. осадки}  10/4 600 м кучево-дожд., средняя 
[Cb cap|As op]
-12.7 -17.9 65 -20  1030  1.8  745  316           
06 28.01.10 220 (ЮЗ) 8{19}  >10 км  метель{ливн. осадки}  3/0 верхняя 
[Ci fib]
-9.4 -16.3 57 -16  1029.2  -0.2  745  312           
09 28.01.10 210 (ЮЗ) 9{17}  >10 км  метель  9/1 2000 м средняя, верхняя 
[Ac lent|Ci fib]
-8 -15.4 55 -14  1028.5  -0.5  745  310           
12 28.01.10 230 (ЮЗ) 8{18}  4000 м  метель  8/4 2000 м средняя, верхняя 
[Ac lent|Ci fib]
-8.6 -15.1 59 -15  1027.6  -0.9  744  311    -7.9  0.0     
15 28.01.10 230 (ЮЗ) 8{19}  4000 м  метель  9/3 600 м кучево-дожд., средняя, верхняя 
[Cb cap|Ac trans|Ci fib]
-10.3 -16.6 60 -17  1027.4  -0.5  743  313           
18 28.01.10 220 (ЮЗ) 6{15}  4000 м  позёмок  10/5 600 м кучево-дожд., средняя 
[Cb cap|Ac As]
-10.1 -17.4 55 -15  1026.6  -0.8  743  312           
21 28.01.10 250 (З) 7{18}  4000 м  метель  10/3 600 м кучево-дожд., средняя 
[Cb cap|Ac As]
-10.3 -20 45 -16  1026.1  -0.4  743  312           
00 29.01.10 240 (ЮЗ) 4{15}  4000 м    10/3 600 м кучево-дожд., средняя 
[Cb cap|Ac As]
-11.7 -21.2 45 -16  1027.2  0.7  743  314  -11.7      37  равномерный
сухой снег
100% 
03 29.01.10 260 (З) >10 км    10/10 2000 м 
[Ac As]
-13.5 -21.7 50 -13  1029.5  2.1  745  317           
06 29.01.10 270 (З) >10 км  слаб. ливневой снег  10/5 600 м кучево-дожд., средняя 
[Cb cap|As op]
-12.4 -20.7 50 -12  1029.4  0.1  745  316           
09 29.01.10 030 (СВ) >10 км  слаб. ливневой снег  10/5 600 м кучево-дожд., средняя 
[Cb cap|As op]
-15 -20.1 65 -15  1030.7  0.8  745  319           
12 29.01.10 020 (С) 4000 м  слаб. ливневой снег  10/10 600 м кучево-дожд. 
[Cb cap]
-15.8 -17.7 85 -16  1032.1  1.2  746  321    -11.7  0.7     
15 29.01.10 260 (З) 4000 м  {ливн. осадки}  10/5 2000 м средняя, верхняя 
[As trans|Ci sp]
-19.2 -21.1 85 -19  1035.4  2.8  748  326           
18 29.01.10 200 (Ю) 4000 м  {ливн. осадки}  ясно 
-20.1 -22 85 -20  1036.5  0.9  749  327           
21 29.01.10 230 (ЮЗ) 4000 м  слаб. снег  10/0 верхняя 
[Cs]
-20.6 -22.5 85 -21  1037.6  0.8  750  328           
00 30.01.10 200 (Ю) 4000 м  {снег}  3/3 2000 м средняя 
[Ac lent]
-20.9 -23.4 80 -21  1038.8  1.2  751  329  -22    0.4  37  равномерный
мокрый или
старый снег
100% 
03 30.01.10 тихо ()   >10 км    8/8 2000 м средняя 
[Ac trans]
-23.6 -25.5 85 -24  1039.6  0.4  751  333           
06 30.01.10 030 (СВ) >10 км    4/3 2000 м средняя, верхняя 
[Ac trans|Ci fib]
-21.3 -23.8 80 -22  1040.7  1.4  752  330           
09 30.01.10 тихо ()   >10 км    6/3 2000 м средняя, верхняя 
[Ac trans|Ci fib]
-20.6 -23.9 75 -21  1041.4  0.7  752  330           
12 30.01.10 300 (СЗ) 4000 м    6/0 верхняя 
[Ci fib]
-26.2 -28.7 79 -27  1043  0.8  753  337    -20.5       
15 30.01.10 300 (СЗ) 4000 м    6/0 верхняя 
[Ci fib]
-27.7 -29.4 86 -28  1043.4  0.1  753  340           
18 30.01.10 тихо ()   4000 м    4/0 верхняя 
[Ci fib]
-29.4 -31.1 85 -29  1043.6  753  342           
21 30.01.10 тихо ()   4000 м    4/0 верхняя 
[Ci fib]
-30.7 -32.9 79 -31  1043.6  -0.3  753  344           
00 31.01.10 тихо ()   4000 м    9/0 верхняя 
[Cs]
-31.7 -34.1 79 -32  1043.8  0.1  753  345  -31.7      39  равномерный
сухой снег
100% 
03 31.01.10 тихо ()   2000 м  слаб. снег  10/0 верхняя 
[Cs]
-32 -34.3 81 -32  1044  0.2  753  346           
06 31.01.10 тихо ()   2000 м  ледяные иглы{снег}  ясно 
-29.5 -31.9 79 -30  1043.8  0.1  753  342           
09 31.01.10 290 (З) 4000 м  ледяные иглы{туман}  3/0 верхняя 
[Ci fib]
-29.2 -31.5 80 -30  1044.4  0.7  754  342           
12 31.01.10 210 (ЮЗ) н/о  позёмок{туман}  ясно 
-31.6 -33.8 80 -32  1045.3  0.4  754  346    -28.9  0.0     
15 31.01.10 220 (ЮЗ) н/о  ледяные иглы  ясно 
-31.8 -34.1 79 -33  1045.5  0.2  754  346           
18 31.01.10 230 (ЮЗ) н/о  слаб. снег  10/0 верхняя 
[Cs]
-32.6 -34.8 80 -33  1040.4  0.7  755  347           
21 31.01.10 тихо ()   н/о  слаб. снег  10/0 верхняя 
[Cs]
-32.2 -33.9 85 -32  1046.8  0.5  755  347           
00 01.02.10 220 (ЮЗ) н/о  слаб. снег  10/0 верхняя 
[Cs]
-33.7 -35.9 81 -35  1047.7  0.6  755  349  -34    0.0  39  равномерный
сухой снег
100% 
03 01.02.10 тихо ()   4000 м  слаб. снег  10/0 верхняя 
[Cs]
-33.4 -35.6 78 -33  1048.5  0.9  756  349           
Время (UTC), дата Ветер
(°,м/с) 
Видим.   Явления Облачность Т
(°С)
Тd
(°С)
f(%) Тe
(°С)
Pmin
(гПа)
dP
(гПа)
Po
(мм)
O2
(г/м3)
Тmin Tmax R s Состояние
почвы